Regional Weather Roundup
Issued by NWS

Home | Current Version | Previous Version | Graphics & Text | Print | Product List | Glossary Off
Versions: 1 2 3 4 5 6 7 8 9 10 11 12 13 14 15 16 17 18 19 20 21 22 23 24 25 26 27 28 29 30 31 32 33 34 35 36 37 38 39 40 41 42 43 44 45 46 47 48 49 50

000
ASUS43 KMKX 270311
RWRWI

WISCONSIN REGIONAL WEATHER ROUNDUP
NATIONAL WEATHER SERVICE MILWAUKEE/SULLIVAN WI
1000 PM CDT WED APR 26 2017

NOTE: "FAIR" INDICATES FEW OR NO CLOUDS BELOW 12,000 FEET WITH NO
SIGNIFICANT WEATHER AND/OR OBSTRUCTIONS TO VISIBILITY.

WIZ001-002-006>008-014>016-023>028-270400-
NORTHWEST WISCONSIN

CITY           SKY/WX    TMP DP  RH WIND       PRES   REMARKS
SUPERIOR ARPT  CLOUDY    30  26  83 CALM      29.65R
ASHLAND        LGT SNOW  30  29  96 N12       29.62R VSB 1   WCI  20
HAYWARD        LGT SNOW  31  29  92 N8        29.58S FOG     WCI  23
SIREN          CLOUDY    34  30  86 CALM      29.59F
CUMBERLAND     CLOUDY    32  30  93 N8        29.55F WCI  25
RICE LAKE      CLOUDY    35  31  85 N12       29.57S WCI  27
CHETEK         CLOUDY    35  32  88 N6        29.55F WCI  30
LADYSMITH      CLOUDY    35  31  87 N12       29.56R WCI  26
EAU CLAIRE     CLOUDY    38  34  85 N8        29.54R WCI  32
MENOMONIE      CLOUDY    38  34  88 N12       29.55S WCI  30
NEW RICHMOND   CLOUDY    36  32  88 N10       29.57F WCI  28
OSCEOLA        CLOUDY    36  31  83 N7        29.60F WCI  30
$$

WIZ003>005-009-010-017-018-270400-
NORTH CENTRAL WISCONSIN

CITY           SKY/WX    TMP DP  RH WIND       PRES   REMARKS
MANITOWISH WTR CLOUDY    31  31 100 N7        29.52S WCI  24
ARBOR VITAE    CLOUDY    34  32  94 N7        29.50F WCI  28
WOODRUFF       CLOUDY    34  32  94 N7        29.50F WCI  28
RHINELANDER    CLOUDY    36  36 100 N6        29.49F WCI  31
EAGLE RIVER    CLOUDY    32  32 100 N8        29.50F FOG     WCI  25
LAND O LAKES   CLOUDY    32  32  99 N9        29.52F WCI  24
PHILLIPS       CLOUDY    32  32 100 N7        29.51F WCI  26
TOMAHAWK       CLOUDY    34  33  94 NW7       29.50F FOG     WCI  28
MEDFORD        CLOUDY    36  35  96 N6        29.49F WCI  31
MERRILL        CLOUDY    38  38 100 N9        29.48F WCI  32
$$

WIZ029-030-035-036-043>047-270400-
CENTRAL WISCONSIN

CITY           SKY/WX    TMP DP  RH WIND       PRES   REMARKS
WAUSAU         CLOUDY    42  40  92 NW8       29.45F
MOSINEE        CLOUDY    41  41 100 NW9       29.47F
MARSHFIELD     CLOUDY    40  36  86 NW13      29.47F WCI  32
STEVENS POINT  CLOUDY    41  38  91 NW6       29.47F
WAUPACA        CLOUDY    48  46  90 NW7       29.47S
WAUTOMA        CLOUDY    46  43  89 NW9       29.47F
WISC RAPIDS    CLOUDY    43  41  93 NW10      29.48F
CAMP DOUGLAS   CLOUDY    42  42  97 NW10      29.50S
$$

WIZ011>013-019>022-031-037>040-048>050-270400-
NORTHEAST WISCONSIN

CITY           SKY/WX    TMP DP  RH WIND       PRES   REMARKS
ANTIGO         CLOUDY    40  40 100 NW10      29.47F WCI  34
SHAWANO        CLOUDY    52  48  87 W3        29.45F
OCONTO         CLOUDY    56  51  83 W7        29.42F
STURGEON BAY   CLOUDY    62  55  77 SW7       29.43F
GREEN BAY      CLOUDY    56  53  90 W13       29.44F
MANITOWOC      CLOUDY    60  55  83 SW6       29.44S
APPLETON       CLOUDY    48  48 100 W13       29.44F FOG
CLINTONVILLE   CLOUDY    48  45  87 NW9       29.45F
OSHKOSH        CLOUDY    50  48  93 NW7       29.45S
$$

WIZ032>034-041-042-053>061-270400-
SOUTHWEST WISCONSIN

CITY           SKY/WX    TMP DP  RH WIND       PRES   REMARKS
LA CROSSE      CLOUDY    43  39  86 NW14      29.52F
SPARTA         CLOUDY    41  40  95 NW8       29.52S
VIROQUA        CLOUDY    40  40  99 W8        29.51S WCI  35
BOSCOBEL       CLOUDY    46  41  82 W7        29.52R
PRAIRIE DU CHI CLOUDY    44  39  84 NW13      29.53R
PLATTEVILLE    CLOUDY    46  44  95 NW12      29.49F
$$

WIZ056-057-062-063-064-067-068-270400-
SOUTH CENTRAL WISCONSIN

CITY           SKY/WX    TMP DP  RH WIND       PRES   REMARKS
REEDSBURG      CLOUDY    45  45 100 NW9       29.49R
BARABOO/DELLS  CLOUDY    46  44  94 W6        29.48R
LONE ROCK      CLOUDY    47  43  86 NW9       29.50R
MINERAL POINT  CLOUDY    46  45  93 NW7       29.49R
MADISON        CLOUDY    51  47  86 W6        29.46S
MIDDLETON      CLOUDY    51  48  89 NW8       29.48R
WATERTOWN      CLOUDY    53  53 100 W3        29.44F
MONROE         CLOUDY    48  46  93 NW10      29.48R
JANESVILLE     CLOUDY    52  52 100 W8        29.47R
$$

WIZ051-052-058>065-066-070>072-270400-
SOUTHEAST WISCONSIN

CITY           SKY/WX    TMP DP  RH WIND       PRES   REMARKS
MILWAUKEE      CLOUDY    62  56  80 W9        29.45R
WAUKESHA       NOT AVBL
MILWAUKEE/TIMM CLOUDY    57  50  77 SW6       29.45F
RACINE         CLOUDY    62  54  74 SW6       29.47R
KENOSHA        CLOUDY    61  54  77 SW6       29.46R
FOND DU LAC    CLOUDY    52  48  86 NW10      29.45F
SHEBOYGAN      CLOUDY    59  56  89 W12       29.44R
WEST BEND      LGT RAIN  55  54  94 W6        29.44F
JUNEAU         CLOUDY    53  51  92 CALM      29.46F
$$

LSZ147-162-270400-
LAKE SUPERIOR

STATION/POSITION TIME  TEMP    WIND        PRES    WAVE
                       AIR SEA DIR/SP/G            HT/PER
                 (UTC) (F)     (DEG/KT/KT) (MB)    (FT/S)
DEVILS ISLAND    0300   28      10/ 17/ 19 1004.5R
SAXON HARBOR     0240   32      20/ 16/ 20 1003.0R
$$

LMZ867-665-643>646-270400-
LAKE MICHIGAN

STATION/POSITION TIME  TEMP    WIND        PRES    WAVE
                       AIR SEA DIR/SP/G            HT/PER
                 (UTC) (F)     (DEG/KT/KT) (MB)    (FT/S)
CHAMBERS ISLAND  0240   58     170/  5/ 11  996.3R
N MID LAKE BUOY  0250   42 37  180/  8/ 10  998.7R   2/ 5
NORTHPORT PIER   0240   50     150/  2/  5  997.0F
KEWAUNEE LAKESHO 0248   61     250/  4/  5  996.1F
SHEBOYGAN LAKESH 0300   61     260/  7/  8  996.7R
PORT WASHINGTON  0240   62     280/  7/ 12  998.0R
MILWAUKEE LAKESH 0250   61     270/  8/ 10   N/A
S MID LAKE BUOY  0150   51 42  240/  4/  4  997.7R   1
KENOSHA   LAKESH 0300   62     230/  4/  6  998.0
$$

TC  - TEMPERATURE IN CELSIUS
VSB - VISIBILITY IN STATUTE MILES
WCI - WIND CHILL INDEX
HX  - HEAT INDEX





USA.gov is the U.S. government's official web portal to all federal, state and local government web resources and services.